Wind_Speed
36 37 37 38 38 38 38 38 38 38 38 39 40 39 39 39 39 39 39 39 39 39 40 40 41 43 44 44 45 46 46 46 46 44 42 39 36 34
39 39 40 40 40 41 41 41 41 40 40 41 42 42 41 40 40 41 42 41 40 39 40 40 41 43 43 43 44 46 46 47 47 46 44 42 39 37
41 41 41 41 41 42 42 42 42 42 42 41 43 43 42 42 41 42 42 42 42 41 41 41 41 42 43 43 44 46 46 46 47 47 45 44 41 39
40 41 41 41 41 42 42 43 43 43 43 42 43 44 44 43 42 43 44 43 43 41 41 42 42 42 42 43 44 45 46 46 47 48 47 46 43 41
40 39 39 39 40 40 41 41 41 42 42 42 42 43 44 44 43 44 44 45 44 42 41 41 42 42 42 43 43 45 46 47 47 47 48 47 45 43
39 38 37 37 37 38 38 38 39 40 40 41 41 42 43 44 44 44 45 45 46 45 44 41 40 41 41 42 42 43 45 47 47 48 47 47 46 45
37 36 36 35 35 36 36 36 37 37 38 39 39 40 41 42 43 44 45 45 45 45 45 44 42 42 41 41 41 42 44 45 46 47 47 48 47 45
36 35 34 34 33 33 34 34 35 35 36 38 38 39 40 41 42 42 44 44 44 45 46 45 44 43 43 42 41 41 42 44 46 47 48 48 48 46
35 34 33 32 32 31 32 33 33 34 35 36 37 38 40 41 41 42 43 44 44 45 46 45 44 42 42 43 42 42 41 41 44 46 47 48 48 46
34 33 32 31 31 30 30 31 32 33 34 35 36 38 40 41 42 42 42 43 44 45 45 45 44 43 41 42 43 42 41 41 42 44 46 47 47 46
33 33 31 30 30 30 30 31 31 32 34 34 35 36 37 39 41 42 42 43 44 45 45 45 45 43 41 41 42 42 41 40 40 43 45 46 46 46
33 32 31 30 30 31 31 31 31 32 33 34 35 35 37 39 40 41 42 43 44 45 45 45 45 44 42 41 41 42 42 41 40 41 43 46 46 45
32 32 31 31 31 32 32 32 32 32 33 34 35 35 36 38 39 40 42 43 44 45 46 46 45 44 43 41 42 41 41 41 40 40 41 44 45 45
32 32 31 31 32 32 32 32 32 32 32 33 33 34 35 36 38 39 40 42 44 45 48 48 47 45 44 43 41 42 42 41 41 40 40 42 44 43
32 32 32 32 31 31 32 32 32 32 32 32 32 33 34 35 36 38 39 41 43 46 47 49 48 46 44 44 43 42 41 42 42 41 40 41 42 42
32 32 32 32 32 31 31 30 30 30 30 31 31 31 32 33 34 36 39 41 43 45 47 49 50 48 45 43 44 44 42 42 42 42 42 42 42 43
32 32 32 32 32 31 30 29 28 28 27 27 28 29 30 31 33 35 37 40 42 44 47 49 51 50 47 44 43 43 43 42 42 42 43 43 43 44
32 32 31 31 30 29 28 27 27 26 26 26 26 27 29 31 32 34 36 38 40 43 47 49 51 52 51 48 45 43 43 43 42 43 42 43 43 44
32 31 30 29 28 28 27 26 26 26 25 25 26 26 28 29 31 33 35 37 39 42 46 49 51 53 52 51 47 45 44 43 43 43 43 44 44 44
31 30 28 28 27 26 26 25 25 25 25 25 25 26 27 28 30 32 34 36 39 42 46 49 51 52 52 51 49 46 44 43 43 43 44 46 46 46
30 28 27 27 26 26 25 25 24 24 24 25 24 25 25 27 28 30 33 35 38 41 45 48 50 51 51 52 50 48 46 44 42 42 44 47 47 46
28 27 27 27 27 26 26 25 24 23 23 23 23 23 23 24 25 28 31 34 36 40 43 47 49 50 51 51 51 49 47 45 43 42 44 47 47 46
27 27 27 27 27 25 25 23 23 22 22 22 21 21 20 21 22 24 27 31 34 38 42 46 48 49 50 51 51 50 48 46 45 44 44 45 48 49
Wind_Direction
293 291 289 286 284 281 279 276 274 271 268 264 261 256 252 249 248 246 244 243 241 241 239 236 234 233 234 234 232 232 232 231 230 229 229 230 232 233
292 290 287 285 282 279 277 275 273 270 268 265 262 259 254 251 248 246 244 242 242 241 240 238 236 233 233 233 233 231 230 230 228 228 229 230 231 232
294 290 286 284 281 278 275 273 271 269 266 264 262 260 257 253 249 246 244 242 242 241 239 239 237 234 232 233 233 231 230 229 228 227 228 229 230 232
296 292 287 283 281 278 275 272 269 267 264 262 260 259 257 253 250 247 244 242 240 240 240 239 238 236 234 233 232 231 230 229 229 228 228 229 230 230
298 294 290 285 281 278 275 272 269 266 263 261 259 258 256 253 250 247 244 241 239 239 239 239 238 238 235 234 233 231 230 229 228 229 228 228 229 230
301 296 292 287 283 279 276 272 269 266 263 260 258 256 255 253 251 247 244 241 239 238 238 238 236 237 237 235 233 232 230 228 228 228 228 228 229 229
302 297 293 289 285 281 277 273 270 267 264 261 258 256 254 252 250 247 244 241 239 238 237 237 236 236 237 236 234 232 229 228 228 228 228 227 226 228
303 299 295 291 286 282 277 274 271 268 265 262 259 256 254 252 249 246 243 240 238 236 236 235 236 236 236 236 235 233 229 229 227 226 226 226 226 227
303 299 296 291 287 283 278 275 272 270 266 263 260 257 254 252 249 245 242 239 236 235 233 233 234 234 235 236 235 234 231 229 227 225 225 225 225 226
303 300 296 291 288 285 280 277 275 272 268 264 260 258 254 251 248 245 242 238 235 233 232 232 232 232 232 233 233 232 231 228 226 224 223 224 224 224
303 300 297 292 289 287 283 280 277 272 268 265 261 259 255 252 248 245 242 239 235 232 231 230 231 230 229 230 231 231 230 228 227 224 222 222 221 221
303 300 296 293 290 288 286 282 278 273 270 267 264 259 256 253 249 245 242 239 235 231 230 229 229 229 229 228 227 228 228 227 226 223 221 219 219 220
302 299 297 294 291 288 287 284 280 276 273 269 265 261 257 253 250 246 242 238 234 231 229 228 227 227 226 225 225 225 224 224 224 224 223 220 218 218
302 299 297 295 292 289 287 284 281 278 274 271 267 262 257 253 249 245 241 237 233 230 228 227 226 226 226 224 224 224 224 223 221 221 221 220 217 216
301 299 297 295 293 290 288 285 282 279 276 272 268 263 258 252 248 244 241 238 234 230 228 227 225 225 225 223 222 222 222 222 222 221 220 219 216 216
300 298 297 295 293 290 288 284 283 281 278 273 268 263 259 253 248 245 241 237 234 230 227 226 225 224 224 222 222 221 221 220 220 219 219 217 215 214
300 299 298 296 293 290 287 285 283 282 278 274 269 263 258 254 249 245 241 237 233 229 226 225 224 223 222 221 220 220 219 218 217 216 217 217 215 213
300 299 299 298 294 289 286 283 283 281 277 274 270 265 260 255 250 246 242 238 234 229 225 223 222 221 221 220 219 218 218 217 215 214 215 214 213 211
299 299 300 299 295 291 286 284 283 280 278 276 272 268 264 258 252 248 244 238 234 229 224 222 220 219 219 219 218 218 217 215 214 213 213 213 211 210
299 299 298 298 295 292 288 285 283 279 278 278 276 272 267 261 255 250 244 238 232 228 223 220 219 218 218 218 218 216 216 214 213 212 213 212 210 210
297 297 296 297 295 293 289 286 284 282 280 280 279 275 270 264 257 250 243 237 231 226 221 217 216 216 216 215 214 213 213 214 213 212 212 211 210 209
297 296 294 294 294 292 289 287 283 282 282 282 281 278 274 268 260 250 241 234 228 222 218 214 213 213 213 212 212 211 212 212 213 213 211 210 208 207
294 293 291 292 293 291 287 284 283 282 283 283 282 280 276 270 261 250 239 229 223 218 213 211 210 210 210 209 209 209 210 211 212 213 211 209 206 205
Height
5785 5782 5780 5778 5777 5776 5776 5775 5776 5777 5778 5778 5780 5784 5787 5790 5793 5796 5799 5803 5806 5810 5814 5819 5823 5828 5833 5838 5844 5849 5855 5860 5865 5871 5876 5880 5885 5889
5774 5772 5769 5767 5766 5765 5764 5764 5764 5765 5766 5767 5768 5771 5775 5779 5782 5786 5789 5792 5796 5800 5804 5809 5813 5818 5823 5829 5834 5840 5845 5850 5856 5862 5867 5872 5877 5881
5763 5760 5757 5755 5753 5752 5751 5751 5751 5752 5754 5755 5756 5758 5762 5767 5771 5774 5778 5782 5786 5790 5795 5799 5804 5808 5813 5819 5824 5830 5835 5841 5847 5853 5858 5864 5869 5874
5750 5747 5745 5742 5741 5739 5738 5738 5738 5739 5741 5743 5744 5746 5750 5754 5758 5762 5767 5771 5775 5779 5784 5789 5794 5798 5803 5809 5814 5820 5826 5832 5837 5844 5850 5856 5861 5866
5738 5735 5732 5730 5728 5727 5726 5725 5725 5726 5728 5730 5732 5734 5737 5741 5746 5750 5755 5760 5764 5769 5773 5778 5784 5788 5794 5799 5804 5810 5816 5822 5828 5834 5840 5846 5852 5857
5727 5723 5720 5718 5716 5714 5714 5713 5713 5714 5715 5717 5720 5722 5725 5728 5733 5737 5742 5747 5753 5758 5763 5768 5773 5778 5783 5789 5794 5800 5806 5812 5818 5824 5831 5837 5843 5849
5716 5712 5709 5707 5705 5703 5702 5702 5702 5702 5703 5705 5707 5710 5713 5716 5720 5724 5730 5735 5741 5746 5752 5758 5763 5769 5773 5779 5784 5790 5795 5801 5808 5814 5821 5827 5833 5840
5706 5702 5699 5696 5694 5693 5691 5691 5691 5691 5692 5693 5696 5698 5701 5704 5707 5712 5717 5724 5730 5736 5740 5746 5752 5758 5763 5769 5774 5780 5785 5791 5798 5804 5811 5817 5824 5830
5696 5692 5689 5686 5684 5683 5681 5681 5680 5680 5681 5682 5684 5686 5688 5692 5696 5701 5705 5710 5717 5723 5729 5735 5741 5747 5753 5759 5764 5770 5776 5781 5788 5794 5801 5808 5814 5821
5686 5682 5679 5677 5674 5673 5672 5671 5670 5670 5670 5671 5673 5674 5676 5679 5683 5688 5693 5699 5705 5711 5717 5724 5730 5737 5743 5748 5754 5760 5766 5772 5778 5784 5791 5798 5805 5812
5677 5673 5670 5667 5665 5663 5662 5661 5660 5659 5659 5660 5662 5663 5664 5667 5671 5676 5681 5687 5694 5700 5706 5713 5719 5726 5732 5738 5744 5751 5757 5763 5769 5775 5782 5788 5795 5802
5668 5664 5661 5658 5656 5654 5652 5651 5650 5649 5648 5649 5650 5651 5653 5656 5659 5664 5669 5675 5682 5689 5695 5702 5708 5715 5722 5728 5734 5741 5747 5754 5760 5766 5773 5779 5786 5793
5659 5655 5652 5649 5647 5644 5642 5641 5639 5638 5638 5638 5638 5640 5641 5644 5647 5651 5657 5663 5669 5677 5683 5689 5697 5703 5711 5718 5724 5730 5738 5745 5751 5758 5764 5771 5777 5785
5649 5645 5642 5639 5637 5634 5632 5630 5628 5627 5627 5626 5626 5628 5629 5632 5635 5639 5644 5650 5657 5664 5670 5677 5685 5692 5700 5707 5714 5721 5728 5735 5742 5749 5756 5762 5769 5776
5640 5636 5633 5629 5627 5624 5622 5619 5618 5616 5615 5615 5615 5616 5617 5620 5623 5627 5632 5638 5644 5651 5658 5666 5674 5681 5688 5696 5704 5711 5718 5725 5733 5740 5747 5754 5761 5768
5630 5627 5623 5619 5616 5614 5611 5609 5607 5606 5605 5604 5604 5605 5606 5608 5612 5616 5620 5626 5632 5640 5647 5654 5662 5670 5678 5685 5693 5701 5709 5716 5724 5731 5738 5745 5752 5760
5620 5617 5613 5610 5607 5604 5602 5600 5598 5596 5595 5594 5594 5594 5595 5598 5601 5604 5608 5613 5620 5627 5635 5643 5651 5658 5667 5674 5682 5691 5699 5707 5715 5722 5730 5737 5744 5752
5611 5607 5604 5600 5597 5594 5592 5591 5589 5587 5586 5585 5584 5585 5586 5587 5590 5593 5597 5602 5608 5615 5622 5630 5638 5647 5655 5664 5673 5681 5690 5698 5705 5713 5721 5729 5736 5744
5601 5598 5595 5591 5588 5585 5583 5582 5580 5578 5577 5576 5575 5575 5576 5577 5579 5582 5585 5590 5595 5602 5610 5617 5626 5635 5644 5655 5664 5672 5681 5688 5696 5704 5713 5721 5729 5736
5592 5589 5586 5583 5580 5577 5575 5573 5571 5570 5568 5567 5566 5566 5566 5566 5568 5570 5573 5577 5583 5589 5597 5605 5615 5625 5636 5645 5654 5663 5671 5680 5688 5696 5704 5712 5719 5728
5583 5580 5577 5574 5572 5569 5567 5565 5563 5561 5560 5559 5558 5557 5556 5556 5557 5559 5562 5566 5571 5577 5585 5595 5605 5614 5623 5632 5642 5652 5662 5670 5679 5687 5695 5703 5711 5720
5574 5571 5569 5566 5564 5561 5559 5557 5555 5554 5552 5551 5549 5548 5547 5546 5547 5548 5550 5555 5560 5567 5575 5584 5593 5602 5612 5623 5634 5643 5652 5661 5670 5678 5686 5696 5704 5714
5565 5563 5560 5558 5555 5553 5551 5549 5548 5546 5545 5543 5542 5541 5539 5538 5538 5538 5541 5545 5550 5557 5565 5574 5583 5593 5603 5613 5624 5634 5643 5652 5661 5670 5679 5687 5696 5704